This is the latest recevied weather packets stored in our database for station/object W1HVD. If no packets are shown the sender has not sent any weather packets the latest 10 day(s).
| Time | Temp. | Humidity | Pressure | Rain* | Wind** | Luminosity | Snow |
|---|---|---|---|---|---|---|---|
| 1777228753 | 14.44° C | 41% | 1020.5 hPa | 0 mm | - | 443 W/m² | - |
| 1777228448 | 13.89° C | 41% | 1020.4 hPa | 0 mm | - | 371 W/m² | - |
| 1777228144 | 14.44° C | 39% | 1020.5 hPa | 0 mm | - | 395 W/m² | - |
| 1777227842 | 13.89° C | 38% | 1020.5 hPa | 0 mm | - | 328 W/m² | - |
| 1777227540 | 13.89° C | 41% | 1020.6 hPa | 0 mm | - | 287 W/m² | - |
| 1777227235 | 13.89° C | 40% | 1020.4 hPa | 0 mm | - | 269 W/m² | - |
| 1777226933 | 13.33° C | 39% | 1020.5 hPa | 0 mm | - | 269 W/m² | - |
| 1777226631 | 12.78° C | 38% | 1020.4 hPa | 0 mm | - | 286 W/m² | - |
| 1777226327 | 13.89° C | 38% | 1020.4 hPa | 0 mm | - | 307 W/m² | - |
| 1777226023 | 13.89° C | 38% | 1020.3 hPa | 0 mm | - | 322 W/m² | - |
| 1777225719 | 13.89° C | 39% | 1020.5 hPa | 0 mm | - | 331 W/m² | - |
| 1777225416 | 13.89° C | 39% | 1020.3 hPa | 0 mm | - | 352 W/m² | - |
| 1777225113 | 13.89° C | 39% | 1020.3 hPa | 0 mm | - | 342 W/m² | - |
| 1777224809 | 13.33° C | 39% | 1020.4 hPa | 0 mm | - | 319 W/m² | - |
| 1777224506 | 13.33° C | 37% | 1020.5 hPa | 0 mm | - | 360 W/m² | - |
| 1777224201 | 13.33° C | 41% | 1020.3 hPa | 0 mm | - | 365 W/m² | - |
| 1777223898 | 13.33° C | 42% | 1020.5 hPa | 0 mm | - | 351 W/m² | - |
| 1777223595 | 13.89° C | 40% | 1020.6 hPa | 0 mm | - | 356 W/m² | - |
| 1777223291 | 13.89° C | 40% | 1020.6 hPa | 0 mm | - | 341 W/m² | - |
| 1777222989 | 13.89° C | 40% | 1020.6 hPa | 0 mm | - | 324 W/m² | - |
| 1777222687 | 13.89° C | 43% | 1020.6 hPa | 0 mm | - | 304 W/m² | - |
| 1777222383 | 13.89° C | 41% | 1020.6 hPa | 0 mm | - | 309 W/m² | - |
| 1777222081 | 13.33° C | 45% | 1020.4 hPa | 0 mm | - | 342 W/m² | - |
| 1777221777 | 13.89° C | 43% | 1020.8 hPa | 0 mm | - | 329 W/m² | - |
| 1777221474 | 13.33° C | 46% | 1020.8 hPa | 0 mm | - | 330 W/m² | - |
* Rain latest hour (hover to see other rain measurements)
** Current wind speed in m/s (hover to see current wind gust speed)